Orbital Elements at Epoch 2459000.5 (2020-May-31.0) TDB
Reference: JPL 14 (heliocentric ecliptic J2000)
Element | Value | Uncertainty (1-sigma) | Units |
e | .08664211415799956 | 4.747e-08 | |
a | 2.748151902385835 | 2.8698e-08 | au |
q | 2.510046211535798 | 1.3956e-07 | au |
i | 9.97324863230374 | 5.2732e-06 | deg |
node | 134.0355353289617 | 3.3603e-05 | deg |
peri | 358.3653080420127 | 5.4189e-05 | deg |
M | 238.2210344193782 | 4.5725e-05 | deg |
tp | 2459563.397485248826 (2021-Dec-14.89748525) | 0.00021703 | TDB |
period | 1664.023780489586 4.56 | 2.6065e-05 7.136e-08 | d yr |
n | .2163430620529243 | 3.3888e-09 | deg/d |
Q | 2.986257593235872 | 3.1185e-08 | au |
|
| | Orbit Determination Parameters
Additional Information
|